| time (UTC) | temp F | wind direction | speed MPH | gust MPH | rain 1hr in | rain 24hr in | rain mn in | humidity % | barometer mb |
| 20260508061930 | 47 | 305 | 0.0 | 0.0 | 0.00 | 0.00 | 0.00 | 74 | 1011.7 |
| 20260508054930 | 48 | 227 | 1.0 | 2.0 | 0.00 | 0.00 | 0.00 | 71 | 1011.2 |
| 20260508051930 | 50 | 265 | 0.0 | 1.0 | 0.00 | 0.00 | 0.00 | 63 | 1010.6 |
| 20260508044930 | 47 | 240 | 0.0 | 1.0 | 0.00 | 0.00 | 0.00 | 74 | 1010.6 |
| 20260508041930 | 49 | 349 | 0.0 | 1.0 | 0.00 | 0.00 | 0.00 | 70 | 1010.4 |
| 20260508034930 | 63 | 192 | 1.0 | 3.0 | 0.00 | 0.04 | 0.00 | 64 | 1004.6 |
| 20260508031929 | 63 | 192 | 1.0 | 3.0 | 0.00 | 0.04 | 0.00 | 64 | 1004.6 |
| 20260508024929 | 63 | 192 | 1.0 | 3.0 | 0.00 | 0.04 | 0.00 | 64 | 1004.6 |
| 20260508021929 | 63 | 192 | 1.0 | 3.0 | 0.00 | 0.04 | 0.00 | 64 | 1004.6 |
| 20260508014929 | 63 | 192 | 1.0 | 3.0 | 0.00 | 0.04 | 0.00 | 64 | 1004.6 |
| 20260508011929 | 63 | 192 | 1.0 | 3.0 | 0.00 | 0.04 | 0.00 | 64 | 1004.6 |
| 20260508004929 | 63 | 192 | 1.0 | 3.0 | 0.00 | 0.04 | 0.00 | 64 | 1004.6 |
| 20260508001929 | 63 | 192 | 1.0 | 3.0 | 0.00 | 0.04 | 0.00 | 64 | 1004.6 |
| 20260507234929 | 63 | 192 | 1.0 | 3.0 | 0.00 | 0.04 | 0.00 | 64 | 1004.6 |
| 20260507231929 | 63 | 192 | 1.0 | 3.0 | 0.00 | 0.04 | 0.00 | 64 | 1004.6 |
| 20260507224929 | 63 | 192 | 1.0 | 3.0 | 0.00 | 0.04 | 0.00 | 64 | 1004.6 |
| 20260507221929 | 63 | 192 | 1.0 | 3.0 | 0.00 | 0.04 | 0.00 | 64 | 1004.6 |
| 20260507214929 | 63 | 192 | 1.0 | 3.0 | 0.00 | 0.04 | 0.00 | 64 | 1004.6 |
| 20260507211929 | 63 | 192 | 1.0 | 3.0 | 0.00 | 0.04 | 0.00 | 64 | 1004.6 |
| 20260507204929 | 60 | 169 | 0.0 | 3.0 | 0.00 | 0.04 | 0.00 | 69 | 1005.7 |
| 20260507201929 | 60 | 169 | 0.0 | 3.0 | 0.00 | 0.04 | 0.00 | 69 | 1005.7 |
| 20260507194929 | 60 | 169 | 0.0 | 3.0 | 0.00 | 0.04 | 0.00 | 69 | 1005.7 |
| 20260507191929 | 59 | 277 | 0.0 | 1.0 | 0.00 | 0.04 | 0.00 | 76 | 1005.8 |
| 20260507184929 | 57 | 8 | 0.0 | 1.0 | 0.00 | 0.04 | 0.00 | 75 | 1006.8 |
| 20260507181929 | 57 | 8 | 0.0 | 1.0 | 0.00 | 0.04 | 0.00 | 75 | 1006.8 |
| 20260507174929 | 57 | 0 | 1.0 | 2.0 | 0.00 | 0.04 | 0.00 | 75 | 1006.8 |
| 20260507171929 | 57 | 9 | 1.0 | 2.0 | 0.00 | 0.04 | 0.00 | 75 | 1007.1 |
| 20260507164929 | 57 | 321 | 0.0 | 2.0 | 0.00 | 0.04 | 0.00 | 77 | 1007.1 |
| 20260507161929 | 57 | 351 | 2.0 | 3.0 | 0.00 | 0.04 | 0.00 | 79 | 1006.9 |
| 20260507154929 | 58 | 326 | 1.0 | 3.0 | 0.00 | 0.04 | 0.00 | 76 | 1007.3 |
| 20260507151929 | 59 | 3 | 2.0 | 5.0 | 0.00 | 0.04 | 0.00 | 76 | 1006.9 |
| 20260507144929 | 59 | 3 | 2.0 | 5.0 | 0.00 | 0.04 | 0.00 | 76 | 1006.9 |
| 20260507141929 | 59 | 357 | 1.0 | 3.0 | 0.00 | 0.04 | 0.00 | 75 | 1006.9 |
| 20260507134929 | 59 | 343 | 1.0 | 2.0 | 0.00 | 0.06 | 0.00 | 77 | 1007.0 |
| 20260507131929 | 59 | 343 | 1.0 | 2.0 | 0.00 | 0.06 | 0.00 | 77 | 1007.0 |
| 20260507124928 | 59 | 345 | 1.0 | 2.0 | 0.00 | 0.06 | 0.00 | 77 | 1007.1 |
| 20260507121929 | 59 | 323 | 0.0 | 1.0 | 0.00 | 0.06 | 0.00 | 80 | 1006.9 |
| 20260507114928 | 59 | 3 | 0.0 | 1.0 | 0.00 | 0.06 | 0.00 | 82 | 1006.9 |
| 20260507111928 | 59 | 349 | 0.0 | 1.0 | 0.00 | 0.07 | 0.00 | 82 | 1006.3 |
| 20260507104928 | 59 | 321 | 1.0 | 1.0 | 0.00 | 0.07 | 0.00 | 80 | 1006.4 |
| 20260507101928 | 59 | 341 | 1.0 | 2.0 | 0.00 | 0.07 | 0.00 | 82 | 1006.4 |
| 20260507094928 | 59 | 0 | 0.0 | 1.0 | 0.00 | 0.07 | 0.00 | 83 | 1006.1 |
| 20260507091928 | 60 | 330 | 1.0 | 1.0 | 0.00 | 0.07 | 0.00 | 83 | 1005.9 |
| 20260507084928 | 61 | 333 | 0.0 | 1.0 | 0.00 | 0.07 | 0.00 | 84 | 1006.3 |
| 20260507081928 | 61 | 328 | 0.0 | 1.0 | 0.00 | 0.07 | 0.00 | 82 | 1006.0 |
| 20260507074928 | 62 | 140 | 0.0 | 2.0 | 0.00 | 0.07 | 0.00 | 82 | 1006.0 |
| 20260507071928 | 62 | 343 | 0.0 | 1.0 | 0.00 | 0.07 | 0.00 | 85 | 1005.8 |
| 20260507064928 | 61 | 335 | 1.0 | 3.0 | 0.00 | 0.07 | 0.00 | 91 | 1005.9 |